Powrót do katalogu

CZ-6A DEB

AktywnyPO
NORAD 60897·DEBRIS·🇨🇳 China

Wystrzelony Aug 6, 2024 z Taiyuan Satellite Launch Center

Loading…

Następne Przeloty (najbliższe 24 godziny)

TLE

ŚwieżeSource: Space-Track

Epoka: Sep 14, 2026, 11:26 UTC

1 60897U 24140LC  26257.47683699  .00003674  00000-0  70073-3 0  9995
2 60897  89.0303 262.5748 0086472 312.3736  47.0178 14.61436673110168

Śledź CZ-6A DEB w czasie rzeczywistym z AllMySat

Download on the App Store